Retour au catalogue

DELTA 1 DEB

ActifSSO
NORAD 10718·DEBRIS·🇺🇸 United States

Lancé Jul 29, 1976 depuis Vandenberg Space Force Base

Loading…

Prochains Passages (prochaines 24 heures)

TLE

FraisSource: Space-Track

Époque: Sep 14, 2026, 13:19 UTC

1 10718U 76077AP  26257.55487512  .00000011  00000-0  38844-3 0  9995
2 10718 101.6051 280.6790 0052186 263.7047 251.8056 12.42899132271879

Suivez DELTA 1 DEB en temps réel avec AllMySat

Download on the App Store